Location: Burgberg
(50.1428°N, 11.0671°E)
Time: 11:02:45
(UTC+00:00)

STARLINK-51 - Pass Details

Date: 26 January 2020
Orbit: 528 x 531 km, 53.0° (Epoch: 19 February)

Event Time Altitude Azimuth Distance (km) Brightness Sun altitude
Exits shadow 05:30:29 24° 277° (W) 1,122 4.6 -14.0°
Maximum altitude 05:32:44 60° 351° (N) 609 3.7 -13.6°
Drops below altitude 10° 05:36:44 10° 72° (ENE) 1,780 7.2 -13.0°
Sets 05:38:58 0° 76° (ENE) 2,671 8.3 -12.7°
